Starlink 33817

operational
NORAD ID: 63583 Int'l Des: 2025-076 Owner: SPXS Country: US Constellation: starlink
LEOCIRCULAR

Über Starlink 33817

Beschreibung wird geladen...

Live-Position

3D-Globus wird geladen...

Nächste Überflüge

Höhenverlauf

Altitude vs Time

uPlot chart will show altitude changes over time

Zweizeiliger Elementsatz

1 63583U 25076Q 25351.55947221 .00025264 00000-0 92418-3 0 9992
2 63583 42.9988 65.1779 0001559 273.8685 86.1988 15.27589714 39260
Epoch: 17. Dez. 2025 • Age: 17 hours

Aktueller Status

Höhe 488.4 km
Geschwindigkeit 7.62 km/s
Subsatellitenpunkt -25.42°S, 154.23°W
Startdatum 14. Apr. 2025
Alter 0.6 years
Typ internet

Technische Details

Klassifizierung Payload
Masse 575.00 kg
Trockenmasse 530.00 kg
Gesamtmasse 575.00 kg
Länge 0.30 m
Durchmesser 4.10 m
Spannweite 29.00 m
Form Box + pan
Hersteller SPXS
Bus-Typ Starlink V2MO
Phasenstatus In Orbit
Besitzer/Staat SPXS/US

Große Konstellationen

Loading constellations...